Lexington Weather

Lexington, Massachusetts, USA

42°F
4/22/2024 8:30am 
  • Lexington Conditions: Clear
  • Temperature: 42.4°F / 5.8°CWarmer 3.7°F than last hour.
  • Dew Point: 27.5°FDecreased 2.5°Fsince last hour.
  • Relative Humidity: 55%Decreased 16.0% since last hour.
  • Wind: Calm, 10-min avg: Calm, gust: None
  • Barometer: 29.95 in Steady
  • Visibility: 10 miles
  • Rain Today: 0.00 in
  •   

Regional Weather Roundup
for Boston, MA

        
000
ASUS41 KBOX 172210
RWRBOX

REGIONAL WEATHER ROUNDUP
NATIONAL WEATHER SERVICE BOSTON/NORTON MA
600 PM EDT WED APR 17 2024

NOTE:  "FAIR" INDICATES FEW OR NO CLOUDS BELOW 12,000 FEET WITH NO 
SIGNIFICANT WEATHER AND/OR OBSTRUCTIONS TO VISIBILITY.

MAZALL-172300-
EASTERN MASSACHUSETTS
  
CITY           SKY/WX    TMP DP  RH WIND       PRES   REMARKS
BOSTON         CLOUDY    49  37  63 SE13      30.13S                  
BEVERLY        PTSUNNY   46  36  68 SE13      30.13R                  
LAWRENCE       PTSUNNY   52  34  50 VRB6      30.13R                  
BEDFORD        PTSUNNY   50  35  56 E13       30.10R                  
NORWOOD        CLOUDY    56  38  50 SE9       30.12R                  
MARSHFIELD     CLOUDY    46  37  71 SE10      30.15R                  
PLYMOUTH       CLOUDY    50  36  58 SE6       30.14R                  
TAUNTON        CLOUDY    52  36  54 MISG      30.14R                  
NEW BEDFORD    CLOUDY    49  37  63 SE10      30.14R                  
$$

MAZALL-172300-
CAPE COD AND THE ISLANDS
  
CITY           SKY/WX    TMP DP  RH WIND       PRES   REMARKS
FALMOUTH       CLOUDY    45  34  65 SE14      30.16R                  
HYANNIS        CLOUDY    45  34  65 SE8       30.14S                  
CHATHAM        PTSUNNY   45  35  68 SE7       30.17S                  
PROVINCETOWN   PTSUNNY   48  36  63 S9        30.16S                  
NANTUCKET      CLOUDY    44  36  73 SE9       30.16S                  
MARTHAS VNYRD  CLOUDY    46  38  73 SE8       30.15S                  
$$
 
MAZALL-172300-
CENTRAL AND WESTERN MASSACHUSETTS
  
CITY           SKY/WX    TMP DP  RH WIND       PRES   REMARKS
WORCESTER      CLOUDY    55  34  45 S15G22    30.07R                  
FITCHBURG      PTSUNNY   59  35  40 SE10      30.08R                  
ORANGE         PTSUNNY   61  34  36 S8        30.06F                  
SPRINGFIELD    NOT AVBL                                               
WESTFIELD      CLOUDY    58  34  40 S10G20    30.07S                  
NORTH ADAMS    CLOUDY    65  36  34 SW8       30.02F                  
PITTSFIELD     CLOUDY    58  35  42 S6        30.03F                  
$$
 
RIZALL-172300-
RHODE ISLAND
  
CITY           SKY/WX    TMP DP  RH WIND       PRES   REMARKS
PROVIDENCE     CLOUDY    47  36  65 S13       30.15R                  
NEWPORT        LGT RAIN  45  37  73 SE6       30.14R                  
BLOCK ISLAND   CLOUDY    44  38  79 E8        30.15S                  
SMITHFIELD     CLOUDY    50  36  58 VRB6      30.12R                  
WESTERLY       CLOUDY    46  39  76 SE8       30.14S                  
$$
 
CTZALL-172300-
CONNECTICUT
  
CITY           SKY/WX    TMP DP  RH WIND       PRES   REMARKS
BRADLEY INTL   CLOUDY    57  33  40 S12       30.09S                  
HARTFORD       CLOUDY    52  34  50 S12       30.10F                  
PLAINVILLE     CLOUDY    54  32  44 SE6       30.09F                  
BRIDGEPORT     LGT RAIN  49  43  80 E13       30.10F                  
DANBURY        LGT RAIN  50  41  71 VRB3      30.09F                  
GROTON         CLOUDY    47  40  76 SE8       30.13F                  
NEW HAVEN      CLOUDY    51  43  74 E10       30.11F                  
CHESTER        CLOUDY    46  39  76 VRB6      30.11F                  
MERIDEN        CLOUDY    51  35  54 SE8       30.10F                  
WILLIMANTIC    CLOUDY    50  33  52 S7        30.12S                  
OXFORD         LGT RAIN  48  38  68 SE8       30.09F                  
$$

MEZ002-015-021-024-NHZ003-005-008-011-012-014-VTZ005-008-172300-
NORTHERN NEW ENGLAND
  
CITY           SKY/WX    TMP DP  RH WIND       PRES   REMARKS
PORTLAND ME    CLOUDY    45  34  65 S13       30.13S                  
BANGOR ME      MOSUNNY   54  27  35 N12       30.12R                  
CONCORD NH     PTSUNNY   56  35  45 E12G18    30.07S                  
MANCHESTER NH  PTSUNNY   60  35  39 SE10G20   30.07R                  
NASHUA NH      MOSUNNY   57  36  45 SE13      30.10R                  
PORTSMOUTH NH  CLOUDY    46  33  62 SE14      30.14R                  
JAFFREY NH     PTSUNNY   63  31  30 CALM      30.06R                  
KEENE NH       PTSUNNY   62  34  35 W5        30.05S                  
BURLINGTON VT  CLOUDY    52  30  43 N9        30.09F                  
MT. WASHINGTON MOSUNNY   30  18  59 S1          N/A                   
$$

NYZ052-076-172300-
EASTERN NEW YORK
  
CITY           SKY/WX    TMP DP  RH WIND       PRES   REMARKS
ALBANY         CLOUDY    63  36  36 S8        30.03F                  
NEW YORK CITY  LGT RAIN  51  44  77 E14       30.06F                  
$$
 
ANZALL-172300-
MARINE OBSERVATIONS
  
STATION/POSITION TIME  TEMP    WIND        PRES    VSBY  WAVE
                       AIR SEA DIR/SP/G                  HT/PER
                 (UTC) (F)     (DEG/KT/KT) (MB)    (MI)  (FT/S)
BOSTON BUOY      2150   44     120/ 14/ 16 1020.4R         3/ 9
BUZZARDS BAY     2100   44     140/ 14/ 14 1021.0F
NANTUCKET SOUND  2150   45 48  110/ 12/ 14 1020.7F         1/ 3
MASS BAY-STELLWA 2004   44 46  130/ 14/ 16 1020.9F  1 7/8  3/ 8
ISLE OF SHOALS   2100   43     120/ 15/ 17 1019.7F
S OF BLOCK IS    2156      45                N/A           3/ 9
$$

......................KEY.........................
  SKY/WX - SKY CONDITION/PRESENT WEATHER
  TMP    - TEMPERATURE IN FAHRENHEIT
  DWPT   - DEWPOINT IN FAHRENHEIT
  RH     - RELATIVE HUMIDITY IN PERCENT
  WIND   - DIRECTION AND SPEED IN MPH
  PRES   - MEAN SEA LEVEL PRESSURE IN INCHES OF HG
  WCI    - WIND CHILL INDEX
  VSB    - VISIBILITY IN MILES
  HX     - HEAT INDEX
  TC     - TEMPERATURE IN CELSIUS
  VRB    - VARIABLE WIND DIRECTION
  N/A    - NOT AVAILABLE
  
      

Other recent Regional Weather Roundups

Mon Apr 22, 8:10am EDT

Mon Apr 22, 7:10am EDT

Mon Apr 22, 6:10am EDT

Mon Apr 22, 5:10am EDT

Mon Apr 22, 4:10am EDT

Mon Apr 22, 3:10am EDT

Mon Apr 22, 2:10am EDT

Mon Apr 22, 1:10am EDT

Mon Apr 22, 12:10am EDT

Sun Apr 21, 11:10pm EDT

Sun Apr 21, 10:10pm EDT

Sun Apr 21, 9:10pm EDT

Sun Apr 21, 8:10pm EDT

Sun Apr 21, 7:10pm EDT

Sun Apr 21, 6:10pm EDT

Sun Apr 21, 5:10pm EDT

Sun Apr 21, 4:10pm EDT

Sun Apr 21, 3:10pm EDT

Sun Apr 21, 2:10pm EDT

Sun Apr 21, 1:10pm EDT

Sun Apr 21, 12:10pm EDT

Sun Apr 21, 11:10am EDT

Sun Apr 21, 10:10am EDT

Sun Apr 21, 9:10am EDT

Sun Apr 21, 8:10am EDT

Sun Apr 21, 7:10am EDT

Sun Apr 21, 6:10am EDT

Sun Apr 21, 5:10am EDT

Sun Apr 21, 4:10am EDT

Sun Apr 21, 3:10am EDT

Sun Apr 21, 2:10am EDT

Sun Apr 21, 1:10am EDT

Sun Apr 21, 12:10am EDT

Sat Apr 20, 11:10pm EDT

Sat Apr 20, 10:10pm EDT

Sat Apr 20, 9:10pm EDT

Sat Apr 20, 8:10pm EDT

Sat Apr 20, 7:10pm EDT

Sat Apr 20, 6:10pm EDT

Sat Apr 20, 5:10pm EDT

Sat Apr 20, 4:10pm EDT

Sat Apr 20, 3:10pm EDT

Sat Apr 20, 2:10pm EDT

Sat Apr 20, 1:10pm EDT

Sat Apr 20, 12:10pm EDT

Sat Apr 20, 11:10am EDT

Sat Apr 20, 10:10am EDT

Sat Apr 20, 9:10am EDT

Sat Apr 20, 8:10am EDT

Sat Apr 20, 7:10am EDT

Sat Apr 20, 6:10am EDT

Sat Apr 20, 5:10am EDT

Sat Apr 20, 4:10am EDT

Sat Apr 20, 3:10am EDT

Sat Apr 20, 2:10am EDT

Sat Apr 20, 1:10am EDT

Sat Apr 20, 12:10am EDT

Fri Apr 19, 11:10pm EDT

Fri Apr 19, 10:10pm EDT

Fri Apr 19, 9:10pm EDT

Fri Apr 19, 8:10pm EDT

Fri Apr 19, 7:10pm EDT

Fri Apr 19, 6:10pm EDT

Fri Apr 19, 5:10pm EDT

Fri Apr 19, 4:10pm EDT

Fri Apr 19, 3:10pm EDT

Fri Apr 19, 2:10pm EDT

Fri Apr 19, 1:10pm EDT

Fri Apr 19, 12:10pm EDT

Fri Apr 19, 11:10am EDT

Fri Apr 19, 10:10am EDT

Fri Apr 19, 9:10am EDT

Fri Apr 19, 8:10am EDT

Fri Apr 19, 7:10am EDT

Fri Apr 19, 6:10am EDT

Fri Apr 19, 5:10am EDT

Fri Apr 19, 4:10am EDT

Fri Apr 19, 3:10am EDT

Fri Apr 19, 2:10am EDT

Fri Apr 19, 1:10am EDT

Fri Apr 19, 12:10am EDT

Thu Apr 18, 11:10pm EDT

Thu Apr 18, 10:10pm EDT

Thu Apr 18, 9:10pm EDT

Thu Apr 18, 8:10pm EDT

Thu Apr 18, 7:10pm EDT

Thu Apr 18, 6:10pm EDT

Thu Apr 18, 5:10pm EDT

Thu Apr 18, 4:10pm EDT

Thu Apr 18, 3:10pm EDT

Thu Apr 18, 2:10pm EDT

Thu Apr 18, 1:10pm EDT

Thu Apr 18, 12:10pm EDT

Thu Apr 18, 11:10am EDT

Thu Apr 18, 10:10am EDT

Thu Apr 18, 9:10am EDT

Thu Apr 18, 8:10am EDT

Thu Apr 18, 7:10am EDT

Thu Apr 18, 6:10am EDT

Thu Apr 18, 5:10am EDT

Thu Apr 18, 4:10am EDT

Thu Apr 18, 3:10am EDT

Thu Apr 18, 2:10am EDT

Thu Apr 18, 1:10am EDT

Thu Apr 18, 12:10am EDT

Wed Apr 17, 11:10pm EDT

Wed Apr 17, 10:10pm EDT

Wed Apr 17, 9:10pm EDT

Wed Apr 17, 8:10pm EDT

Wed Apr 17, 7:10pm EDT

Wed Apr 17, 5:10pm EDT

Wed Apr 17, 4:10pm EDT

Wed Apr 17, 3:10pm EDT

Wed Apr 17, 2:10pm EDT

Wed Apr 17, 1:10pm EDT

Wed Apr 17, 12:10pm EDT

Wed Apr 17, 11:10am EDT

Wed Apr 17, 10:10am EDT

Wed Apr 17, 9:10am EDT

Wed Apr 17, 8:10am EDT

Wed Apr 17, 7:10am EDT

Wed Apr 17, 6:10am EDT

Wed Apr 17, 5:10am EDT

Wed Apr 17, 4:10am EDT

Wed Apr 17, 3:10am EDT

Wed Apr 17, 2:10am EDT

Wed Apr 17, 1:10am EDT

Wed Apr 17, 12:10am EDT

Tue Apr 16, 11:10pm EDT

Tue Apr 16, 10:10pm EDT

Tue Apr 16, 9:10pm EDT

Tue Apr 16, 8:10pm EDT

Tue Apr 16, 7:10pm EDT

Tue Apr 16, 6:10pm EDT

Tue Apr 16, 5:10pm EDT

Tue Apr 16, 4:10pm EDT

Tue Apr 16, 3:10pm EDT

Tue Apr 16, 2:10pm EDT

Tue Apr 16, 1:10pm EDT

Tue Apr 16, 12:10pm EDT

Tue Apr 16, 11:10am EDT

Tue Apr 16, 10:10am EDT

Tue Apr 16, 9:10am EDT

Tue Apr 16, 8:10am EDT

Tue Apr 16, 7:10am EDT

Tue Apr 16, 6:10am EDT

Tue Apr 16, 5:10am EDT

Tue Apr 16, 4:10am EDT

Tue Apr 16, 3:10am EDT

Tue Apr 16, 2:10am EDT

Tue Apr 16, 1:10am EDT

Tue Apr 16, 12:10am EDT

Mon Apr 15, 11:10pm EDT

Mon Apr 15, 10:10pm EDT

Mon Apr 15, 9:10pm EDT

Mon Apr 15, 8:10pm EDT

Mon Apr 15, 7:10pm EDT

Mon Apr 15, 6:10pm EDT

Mon Apr 15, 5:10pm EDT

Mon Apr 15, 4:10pm EDT

Mon Apr 15, 3:10pm EDT

Mon Apr 15, 2:10pm EDT

Mon Apr 15, 1:10pm EDT

Mon Apr 15, 12:10pm EDT

Mon Apr 15, 11:10am EDT

Mon Apr 15, 10:10am EDT

Mon Apr 15, 9:10am EDT